Regional Weather Roundup
Issued by NWS Lake Charles, LA

Home | Current Version | Previous Version | Text Only | Print | Product List | Glossary On
Versions: 1 2 3 4 5 6 7 8 9 10 11 12 13 14 15 16 17 18 19 20 21 22 23 24 25 26 27 28 29 30 31 32 33 34 35 36 37 38 39 40 41 42 43 44 45 46 47 48 49 50
000
ASUS44 KLCH 291810
RWRLCH
RWRLCH
REGIONAL WEATHER ROUNDUP
NATIONAL WEATHER SERVICE LAKE CHARLES LA
1200 PM CST THU JAN 29 2015

Note: "fair" indicates few or no clouds below 12,000 feet with no
significant weather and/or obstructions to visibility.


ACROSS SOUTHEAST TEXAS

CITY           SKY/WX    TMP DP  RH WIND       PRES   REMARKS
BEAUMONT       PTSUNNY   74  60  61 W10       30.25F
BEAUMONT CITY  MOCLDY    67  61  81 W6        30.26F
ORANGE         PTCLDY    70  61  72 SW8       30.27F
JASPER         SUNNY     70  57  63 SW9       30.26S
$$

ACROSS CENTRAL LOUISIANA

CITY           SKY/WX    TMP DP  RH WIND       PRES   REMARKS
LEESVILLE      MOSUNNY   67  59  76 SW14      30.23F
FULLERTON        N/A     70  57  63 VRB6      30.21F
ALEXANDRIA INT MOSUNNY   67  58  72 S9        30.21F
ESLER FIELD    SUNNY     71  55  56 W15       30.22F
DERIDDER       MOCLDY    66  58  76 CALM      30.26F
OAKDALE        MOCLDY    67  59  75 W3        30.24F
OPELOUSAS        N/A     69  59  70 SW12      30.24F
$$

ACROSS SOUTHWEST AND SOUTH CENTRAL LOUISIANA

CITY           SKY/WX    TMP DP  RH WIND       PRES   REMARKS
SULPHUR        PTCLDY    72  59  62 SW9       30.26F
LAKE CHARLES   SUNNY     70  60  70 SW9       30.25F
CHENNAULT INT  NOT AVBL
CAMERON PHI    CLEAR     64  61  88 SW8       30.29S
DEQUINCY       CLOUDY    67  61  80 W8        30.25F
JENNINGS         N/A     69  60  72 SW7       30.25F
LAFAYETTE      SUNNY     71  57  61 SW10      30.25F
NEW IBERIA     SUNNY     71  61  70 SW7       30.26F
ABBEVILLE        N/A     70  60  70 SW7       30.25F
PATTERSON      MOSUNNY   72  61  68 W10       30.28S
SALT POINT       N/A     64  58  80 W3        30.26S
$$

SELECTED SITES ACROSS THE REGION

CITY           SKY/WX    TMP DP  RH WIND       PRES   REMARKS
HOUSTON BUSH   PTSUNNY   71  59  65 W9        30.26F
HOUSTON HOBBY  MOSUNNY   72  60  66 SW10      30.25F
GALVESTON      MOSUNNY   70  62  76 SW9       30.26F
COLLEGE STAT   MOSUNNY   69  57  65 SW14      30.25F
CONROE         MOSUNNY   67  58  72 S14       30.24F
HUNTSVILLE     SUNNY     69  55  60 W10       30.24F
LUFKIN         SUNNY     74  52  46 W14G20    30.24F
SHREVEPORT     PTSUNNY   70  52  52 W10       30.20F
MONROE         SUNNY     70  53  54 W13       30.18F
NATCHEZ MS     SUNNY     68  54  60 SW12      30.22F
BATON ROUGE    SUNNY     72  57  59 SW10      30.24F
N.O. INTL ARPT MOSUNNY   71  57  61 SW8       30.26F
SLIDELL        PTSUNNY   70  53  54 S9        30.26F
$$

MARINE REPORTS

STATION/POSITION TIME  TEMP    WIND        PRES    VSBY  WAVE
                       AIR SEA DIR/SP/G                  HT/PER
                 (UTC) (F)     (DEG/KT/KT) (MB)    (MI)  (FT/S)
BUOY 30 S HIGH I 1800   63 58   CALM  /  2 1024.5F         2/ 4
SEA RIM ST PARK  1800   65     200/  6/  9 1024.9F
PORT ARTHUR      1800      53  230/  7/ 10 1024.5F
SABINE PASS N    1800   70 56  250/  5/ 12 1024.4F
TEXAS POINT      NOT AVBL
CALCASIEU PASS   1800   62 56  230/  6/  8   N/A
LK CHARLES BEACH 1800   66 53              1024.4F
MARSH ISLAND     1700   68     270/  1/  3   N/A
FRESH WATER LOCK 1800   69 58  230/  8/ 13 1024.7F
AMERADA PASS     1800   67 47  190/  4/  6 1024.9S
$$



USA.gov is the U.S. government's official web portal to all federal, state and local government web resources and services.